St. Cloud, MN

1:42 PM CDT on October 20, 2017 (GMT -0500)
Saint Cloud Regional

Weather History for KSTC - July, 2012

Change the Weather History Date:

Monday, July 16, 2012

  Actual Average Record
Temperature  
Mean Temperature 86 °F 71 °F  
Max Temperature 99 °F 83 °F 102 °F (1931)
Min Temperature 73 °F 59 °F 44 °F (1973)
Degree Days  
Heating Degree Days 0 0  
Month to date heating degree days 0 13  
Since 1 June heating degree days 30 91  
Since 1 July heating degree days 0 13  
Cooling Degree Days 21 6  
Month to date cooling degree days 206 95  
Year to date cooling degree days 407 215  
Since 1 June cooling degree days 356 190  
Growing Degree Days 35 (Base 50)    
Moisture  
Dew Point 66 °F    
Average Humidity 57    
Maximum Humidity 79    
Minimum Humidity 35    
Precipitation  
Precipitation 0.00 in 0.10 in 1.11 in (1927)
Month to date precipitation 0.88 1.76  
Year to date precipitation 17.56 14.24  
Snow  
Snow 0.00 in 0.00 in 0.00 in ()
Month to date snowfall 0.0 0.0  
Since 1 June snowfall 0.0 0.0  
Since 1 July snowfall 0.0 0.0  
Snow Depth 0.00 in    
Sea Level Pressure  
Sea Level Pressure 29.77 in    
Wind  
Wind Speed 11 mph (SSW)    
Max Wind Speed 24 mph    
Max Gust Speed 32 mph    
Visibility 10 miles    
Events      
T = Trace of Precipitation, MM = Missing Value Source: NWS Daily Summary

Daily Weather History Graph

Daily Weather History Graph

Search for Another Location

Airport or City:

Trip Planner

Search our weather history database for the weather conditions in past years. The results will help you decide how hot, cold, wet, or windy it might be!

Date:

Astronomy

Jul. 16, 2012 Rise Set
Actual Time 5:43 AM CDT 9:00 PM CDT
Civil Twilight 5:07 AM CDT 9:37 PM CDT
Nautical Twilight 4:19 AM CDT 10:24 PM CDT
Astronomical Twilight 3:20 AM CDT 11:22 PM CDT
Moon 3:27 AM CDT (7/16) 7:06 PM CDT (7/16)
Length of Visible Light 16h 30m
Length of Day
15h 17m
Waning Crescent, 6% of the Moon is Illuminated
Jul 16
Waning Crescent
Jul 18
New
Jul 26
First Quarter
Aug 1
Full
Aug 9
Last Quarter

Hourly Weather History & Observations

Time (CDT) Temp. Heat Index Dew Point Humidity Pressure Visibility Wind Dir Wind Speed Gust Speed Precip Events Conditions
12:53 AM 73.9 °F - 66.9 °F 79% 29.90 in 8.0 mi SE 8.1 mph - N/A   Clear
1:53 AM 73.0 °F - 66.9 °F 81% 29.88 in 8.0 mi SSE 6.9 mph - N/A   Clear
2:53 AM 75.9 °F - 66.9 °F 74% 29.86 in 10.0 mi South 6.9 mph - N/A   Clear
3:53 AM 78.1 °F - 66.9 °F 68% 29.84 in 10.0 mi South 8.1 mph - N/A   Clear
4:53 AM 75.9 °F - 68.0 °F 76% 29.82 in 10.0 mi South 8.1 mph - N/A   Clear
5:53 AM 75.9 °F - 68.0 °F 76% 29.81 in 10.0 mi South 10.4 mph - N/A   Clear
6:53 AM 77.0 °F - 66.9 °F 71% 29.80 in 10.0 mi South 10.4 mph - N/A   Clear
7:53 AM 82.0 °F 83.4 °F 64.0 °F 54% 29.78 in 10.0 mi South 11.5 mph - N/A   Clear
8:53 AM 84.9 °F 85.0 °F 61.0 °F 44% 29.78 in 10.0 mi SW 15.0 mph 21.9 mph N/A   Clear
9:53 AM 88.0 °F 88.4 °F 62.1 °F 42% 29.77 in 10.0 mi SSW 13.8 mph - N/A   Clear
10:53 AM 91.0 °F 91.5 °F 62.1 °F 38% 29.76 in 10.0 mi SW 18.4 mph 25.3 mph N/A   Clear
11:53 AM 93.9 °F 94.8 °F 62.1 °F 35% 29.75 in 10.0 mi SW 19.6 mph 28.8 mph N/A   Clear
12:53 PM 95.0 °F 96.0 °F 63.0 °F 34% 29.75 in 10.0 mi SW 16.1 mph 27.6 mph N/A   Clear
1:53 PM 96.1 °F 98.3 °F 64.0 °F 35% 29.74 in 10.0 mi SW 16.1 mph 26.5 mph N/A   Clear
2:53 PM 97.0 °F 99.3 °F 64.0 °F 34% 29.73 in 10.0 mi SW 16.1 mph 26.5 mph N/A   Clear
3:53 PM 97.0 °F 99.3 °F 64.0 °F 34% 29.72 in 10.0 mi SW 17.3 mph 24.2 mph N/A   Clear
4:53 PM 97.0 °F 99.3 °F 64.0 °F 34% 29.72 in 10.0 mi WSW 17.3 mph 23.0 mph N/A   Clear
5:53 PM 97.0 °F 99.9 °F 64.9 °F 35% 29.71 in 10.0 mi WSW 12.7 mph 23.0 mph N/A   Clear
6:53 PM 95.0 °F 97.4 °F 64.9 °F 37% 29.71 in 10.0 mi WSW 13.8 mph - N/A   Clear
7:53 PM 93.0 °F 96.4 °F 66.9 °F 42% 29.71 in 10.0 mi WSW 6.9 mph - N/A   Clear
8:53 PM 88.0 °F 91.4 °F 68.0 °F 51% 29.72 in 10.0 mi SW 3.5 mph - N/A   Clear
9:53 PM 82.0 °F 85.9 °F 70.0 °F 67% 29.74 in 10.0 mi SW 4.6 mph - N/A   Clear
10:53 PM 81.0 °F 84.4 °F 70.0 °F 69% 29.75 in 10.0 mi WNW 3.5 mph - N/A   Clear
11:53 PM 78.1 °F - 70.0 °F 76% 29.75 in 10.0 mi Calm Calm - N/A   Clear